Location: Newark
(44.6028°N, 124.0883°W)
Time: 00:30:21
(UTC+00:00)

N. Korean satellite - Pass Details

Date: 23 October 2020
Orbit: 452 x 504 km, 97.2° (Epoch: 24 November)

Event Time Altitude Azimuth Distance (km) Brightness Sun altitude
Rises 02:02:48 0° 210° (SSW) 2,568 10.8 -8.4°
Reaches altitude 10° 02:05:46 10° 237° (WSW) 1,682 10.4 -9.0°
Maximum altitude 02:07:40 14° 269° (W) 1,460 10.5 -9.3°
Drops below altitude 10° 02:09:34 10° 301° (WNW) 1,674 10.1 -9.6°
Sets 02:12:30 0° 328° (NNW) 2,547 10.6 -10.1°
